NOAA 16 DEB, 42386

Orbit data source: Space-Track

NOAA 16 DEB, 42386 is space debris in SSO originally from a launch on Thu, 21 Sep 2000 UTC launched from the Air Force Western Test Range (AFWTR). Debris objects in space refer to the collection of defunct objects orbiting the Earth. Examples of debris include non-operational satellites, rocket bodies, and fragments generated from explosions, collisions, or faulty payload assembly.

Loading next visibility...
Identifier
42386, 2000-055SE
Orbit
SSO
Country
Flag of USUS
Related business
Manufacturer
Unknown
Mission
Spacecraft
Bus & Motor
Unknown
Mass
Unknown
Launch date (UTC)
2000-09-21 (25 years ago)
Launch vehicle
Unknown
Launch site
Air Force Western Test Range (AFWTR)
Object type
Payload
Rocket body
Debris
Shape & HBR
Unknown shape, 0.1 m
Radar Cross Section
Small (<0.1 m²)

Expand to show TLE details & history
Last TLE update: 2 days ago

TLE from 2 days ago
0 NOAA 16 DEB
1 42386U 00055SE  25341.06375062  .00007783  00000-0  28027-2 0  9993
2 42386  98.6935  69.0533 0017575 343.5805  16.4808 14.33884072507799
Epoch: 2025-12-07T01:31Z
TLE epoch observation values (Epoch: 2025-12-07T01:31:48.053Z)
Latitude
-0.00001°
Longitude
-29.97943°
Altitude
769.649 km
Speed
7.476 km/s
True Right ascension
04h 36m 12s
True Declination
0° 00' 00"
Sunlit
Object was in full shadow at epoch
Visualization orbit readout
Latitude
Unknown
Longitude
Unknown
Altitude
Unknown
Speed
Unknown
Apparent Right ascension
Unknown
Apparent Declination
Unknown
Sunlit
N/A
Visualization observer readout
Local Sidereal Time
02:45:57
Azimuth
Unknown
Elevation
Unknown
Doppler factor
Unknown
Orbital elements
Apogee altitude
788.49 km
Perigee altitude
763.343 km
Semi-major axis
7,154.054 km
Eccentricity
0.00176
Inclination
98.6935°
RAAN
69.0533°
Arg. of periapsis
343.5805°
True anomaly
16.53806°
Mean anomaly
16.4808°
Eccentric anomaly
16.50942°
Mean motion
3.58686 °/min
Orbital period
100.37 mins
BSTAR
0.0028027
Loading maneuver chart data...
Computing Atmospheric mass density...
Loading historical data...
Loading historical data...
Loading historical data...
Loading historical data...
Loading historical data...
Loading historical data...
Loading historical data...

Documentation

Showing up to 5 results
|